GW2918 Weather Reports


time (UTC)temp
C
wind
direction
speed
KPH
gust
KPH
rain 1hr
cm
rain 24hr
cm
rain mn
cm
humidity
%
barometer
mb
20260902192350 21 223 6.4 14.5 0.00 0.18 0.18 99 1020.0
20260902191346 21 209 8.0 9.7 0.00 0.18 0.18 99 1019.9
20260902190347 22 182 1.6 8.0 0.00 0.18 0.18 99 1019.6
20260902185344 21 207 8.0 11.3 0.00 0.18 0.18 99 1019.8
20260902184340 21 208 4.8 9.7 0.00 0.18 0.18 99 1020.1
20260902183338 22 215 12.9 14.5 0.00 0.18 0.18 98 1020.0
20260902182336 21 207 1.6 6.4 0.00 0.18 0.18 99 1020.0
20260902181333 21 181 3.2 6.4 0.00 0.18 0.18 99 1019.8
20260902180329 21 209 3.2 9.7 0.00 0.18 0.18 99 1019.8
20260902175325 21 185 3.2 6.4 0.00 0.18 0.18 99 1019.8
20260902174323 20 148 3.2 8.0 0.00 0.18 0.18 99 1020.3
20260902173318 20 207 8.0 11.3 0.00 0.18 0.18 99 1020.5
20260902172318 20 218 8.0 24.1 0.00 0.18 0.18 99 1020.4
20260902171314 20 176 3.2 6.4 0.00 0.18 0.18 99 1020.7
20260902170312 20 211 9.7 14.5 0.00 0.18 0.18 99 1020.7
20260902165309 20 196 3.2 9.7 0.00 0.18 0.18 99 1020.8
20260902164302 21 191 8.0 17.7 0.00 0.18 0.18 99 1020.9
20260902163256 21 180 0.0 9.7 0.00 0.18 0.18 99 1020.8
20260902162256 21 221 14.5 16.1 0.00 0.18 0.18 99 1020.6
20260902161252 20 218 8.0 14.5 0.00 0.18 0.18 99 1020.7
20260902160248 20 209 6.4 11.3 0.00 0.18 0.18 99 1020.4
20260902155245 20 220 9.7 9.7 0.00 0.18 0.18 99 1020.5
20260902154242 20 205 3.2 8.0 0.00 0.18 0.18 99 1020.6
20260902153241 20 196 4.8 14.5 0.00 0.18 0.18 99 1020.5
20260902152238 20 173 3.2 8.0 0.00 0.18 0.18 99 1020.4
20260902151234 20 206 6.4 12.9 0.13 0.18 0.18 99 1020.4
20260902150231 20 207 9.7 12.9 0.30 0.15 0.15 99 1020.9
20260902145230 20 174 1.6 9.7 0.18 0.10 0.10 99 1020.6
20260902144228 20 202 4.8 11.3 0.13 0.08 0.08 99 1020.6
20260902143224 20 152 1.6 9.7 0.05 0.05 0.05 99 1020.7
20260902142221 20 201 4.8 8.0 0.13 0.05 0.05 99 1020.6
20260902141217 20 180 1.6 3.2 0.00 0.03 0.03 99 1020.9
20260902140212 20 157 0.0 4.8 0.05 0.03 0.03 99 1020.9
20260902135207 20 206 4.8 6.4 0.00 0.00 0.00 99 1021.5
20260902134201 20 240 11.3 12.9 0.00 0.00 0.00 99 1021.3
20260902133156 20 204 8.0 11.3 0.00 0.00 0.00 99 1020.7
20260902132153 20 192 0.0 9.7 0.00 0.00 0.00 99 1020.8
20260902131150 20 165 3.2 8.0 0.00 0.00 0.00 99 1020.8
20260902130147 20 163 3.2 12.9 0.00 0.00 0.00 99 1020.7
20260902125143 20 206 3.2 9.7 0.00 0.00 0.00 99 1020.6
20260902124140 20 210 8.0 14.5 0.00 0.00 0.00 99 1020.5
20260902123136 20 209 3.2 9.7 0.00 0.00 0.00 99 1020.5
20260902122132 20 190 1.6 12.9 0.00 0.00 0.00 99 1020.0
20260902121127 19 170 3.2 11.3 0.00 0.00 0.00 99 1020.0
20260902120126 19 203 6.4 9.7 0.00 0.00 0.00 99 1019.8
20260902115122 19 205 3.2 6.4 0.00 0.00 0.00 99 1019.3
20260902114117 18 168 1.6 6.4 0.00 0.00 0.00 99 1019.5
20260902113113 18 177 3.2 4.8 0.00 0.00 0.00 99 1019.7
20260902112112 18 197 0.0 6.4 0.00 0.00 0.00 99 1020.0
20260902111108 18 203 6.4 6.4 0.00 0.00 0.00 99 1019.6
20260902110107 17 221 3.2 6.4 0.00 0.00 0.00 99 1019.7
20260902105106 18 160 0.0 3.2 0.00 0.00 0.00 99 1019.7
20260902104102 18 171 4.8 6.4 0.00 0.00 0.00 99 1019.7
20260902103058 18 153 3.2 6.4 0.00 0.00 0.00 99 1019.7
20260902102057 18 156 1.6 3.2 0.00 0.00 0.00 99 1019.8
20260902101056 18 198 1.6 3.2 0.00 0.00 0.00 99 1020.1
20260902100052 18 203 3.2 4.8 0.00 0.00 0.00 99 1020.1
20260902095050 18 162 0.0 8.0 0.00 0.00 0.00 99 1019.9
20260902094048 18 148 0.0 6.4 0.00 0.00 0.00 99 1019.8
20260902093042 17 197 8.0 9.7 0.00 0.00 0.00 99 1019.7
20260902092038 17 176 1.6 4.8 0.00 0.00 0.00 99 1019.9
20260902091035 17 135 0.0 3.2 0.00 0.00 0.00 99 1019.7
20260902090030 17 118 3.2 3.2 0.00 0.00 0.00 99 1019.8
20260902085025 17 189 0.0 4.8 0.00 0.00 0.00 99 1019.8
20260902084023 17 236 1.6 6.4 0.00 0.00 0.00 99 1019.6
20260902083018 18 211 4.8 4.8 0.00 0.00 0.00 99 1019.6
20260902082016 18 193 1.6 8.0 0.00 0.00 0.00 99 1019.8
20260902081012 18 155 0.0 4.8 0.00 0.00 0.00 99 1019.4
20260902080010 17 166 3.2 3.2 0.00 0.00 0.00 99 1019.6
20260902075006 18 206 3.2 4.8 0.00 0.00 0.00 99 1019.4
20260902074006 17 203 0.0 3.2 0.00 0.00 0.00 99 1019.3
20260902073005 17 140 1.6 3.2 0.00 0.00 0.00 99 1019.2
20260902072003 17 170 0.0 1.6 0.00 0.00 0.00 99 1019.4
20260902070958 18 195 3.2 4.8 0.00 0.00 0.00 99 1019.5
20260902065958 18 205 0.0 4.8 0.00 0.00 0.00 99 1019.6
20260902064954 17 242 1.6 4.8 0.00 0.00 0.00 99 1019.5
20260902063952 18 228 3.2 4.8 0.05 0.00 0.00 99 1019.7
20260902062947 18 177 0.0 3.2 0.00 0.00 0.00 99 1019.8
20260902061946 18 225 0.0 4.8 0.00 0.00 0.00 99 1019.6
20260902060943 18 197 0.0 3.2 0.00 0.00 0.00 99 1019.7
20260902055941 18 189 0.0 3.2 0.00 0.00 0.00 99 1019.7
20260902054938 18 180 0.0 4.8 0.00 0.00 0.00 99 1019.7
20260902053934 18 211 0.0 4.8 0.00 0.00 0.00 99 1019.7
20260902052928 18 190 1.6 3.2 0.00 0.00 0.00 99 1019.7
20260902051924 18 106 0.0 3.2 0.00 0.00 0.00 99 1019.7
20260902050923 18 156 3.2 3.2 0.00 0.00 0.00 99 1019.9
20260902045918 18 194 3.2 4.8 0.00 0.00 0.00 99 1019.8
20260902044916 18 166 0.0 3.2 0.00 0.00 0.00 99 1019.6
20260902043912 18 141 0.0 0.0 0.00 0.00 0.00 99 1019.6
20260902042908 18 128 1.6 3.2 0.00 0.00 0.00 99 1019.7
20260902041903 18 215 3.2 4.8 0.00 0.00 0.00 99 1019.5
20260902040902 18 246 1.6 3.2 0.00 0.00 0.00 99 1019.7
20260902035856 18 217 3.2 4.8 0.00 0.46 0.46 99 1019.6
20260902034850 18 346 0.0 1.6 0.00 0.46 0.46 99 1019.4
20260902033850 18 152 0.0 3.2 0.00 0.46 0.46 99 1019.3
20260902032844 19 209 0.0 3.2 0.00 0.46 0.46 99 1019.2
20260902031844 19 269 0.0 3.2 0.00 0.46 0.46 99 1019.2
20260902030842 19 206 0.0 3.2 0.00 0.46 0.46 99 1019.3
20260902025841 18 211 3.2 4.8 0.00 0.46 0.46 99 1019.2
20260902024837 18 217 0.0 3.2 0.00 0.46 0.46 99 1019.0
20260902023834 19 170 0.0 3.2 0.00 0.46 0.46 99 1018.9
20260902022834 19 163 0.0 3.2 0.00 0.46 0.46 99 1018.6
20260902021832 19 144 0.0 3.2 0.00 0.46 0.46 99 1018.8
20260902020828 19 104 0.0 3.2 0.00 0.46 0.46 99 1018.6
20260902015825 19 153 1.6 1.6 0.00 0.46 0.46 99 1018.8
20260902014822 19 132 3.2 3.2 0.00 0.46 0.46 99 1019.0
20260902013817 19 178 0.0 3.2 0.00 0.46 0.46 99 1018.7
20260902012814 20 198 3.2 4.8 0.00 0.46 0.46 99 1018.4
20260902011811 20 177 0.0 1.6 0.00 0.46 0.46 99 1018.3
20260902010810 20 181 0.0 1.6 0.00 0.46 0.46 99 1018.6
20260902005805 20 144 1.6 1.6 0.00 0.46 0.46 99 1018.5
20260902004800 20 262 1.6 3.2 0.00 0.46 0.46 99 1018.5
20260902003756 20 256 1.6 3.2 0.00 0.46 0.46 99 1018.5
20260902002753 20 212 0.0 0.0 0.00 0.46 0.46 99 1018.4
20260902001748 20 259 1.6 3.2 0.00 0.46 0.46 99 1017.7
20260902000749 21 147 0.0 3.2 0.00 0.46 0.46 99 1017.6
20260901235744 21 218 0.0 3.2 0.05 0.46 0.46 99 1017.8
20260901234744 22 194 0.0 3.2 0.00 0.46 0.46 99 1017.7
20260901233739 22 25 0.0 6.4 0.18 0.46 0.46 99 1017.3
20260901232736 22 201 3.2 4.8 1.45 0.43 0.43 99 1018.1
20260901231733 23 349 6.4 6.4 0.48 0.15 0.15 92 1018.5
20260901230731 23 134 0.0 3.2 0.00 0.08 0.08 89 1017.3
20260901225726 24 211 1.6 3.2 0.00 0.08 0.08 88 1017.2
20260901224722 24 130 0.0 4.8 0.00 0.08 0.08 88 1017.4
20260901223720 25 227 1.6 4.8 0.00 0.08 0.08 94 1017.5
20260901222717 24 158 1.6 1.6 0.00 0.08 0.08 94 1017.4
20260901221714 24 202 0.0 6.4 0.00 0.08 0.08 95 1017.8
20260901220709 24 220 3.2 3.2 0.00 0.08 0.08 95 1017.5
20260901215707 24 152 0.0 3.2 0.00 0.08 0.08 94 1017.1
20260901214706 25 141 0.0 4.8 0.00 0.08 0.08 93 1016.8
20260901213700 25 344 4.8 8.0 0.00 0.08 0.08 91 1016.6
20260901212700 25 295 6.4 8.0 0.00 0.08 0.08 91 1017.0
20260901211656 26 86 1.6 11.3 0.00 0.08 0.08 90 1016.5
20260901210653 27 52 1.6 4.8 0.00 0.08 0.08 82 1016.7
20260901205651 27 345 3.2 6.4 0.00 0.08 0.08 83 1017.0
20260901204647 28 333 3.2 3.2 0.00 0.08 0.08 78 1016.6
20260901203642 28 3 1.6 6.4 0.00 0.08 0.08 78 1016.5
20260901202642 28 68 3.2 3.2 0.00 0.08 0.08 81 1016.4
20260901201640 28 46 3.2 4.8 0.00 0.08 0.08 81 1016.8
20260901200639 28 345 3.2 8.0 0.00 0.08 0.08 82 1016.8
20260901195638 28 17 4.8 8.0 0.00 0.08 0.08 81 1016.8
20260901194633 29 25 1.6 6.4 0.00 0.08 0.08 79 1016.9
20260901193630 29 283 8.0 9.7 0.00 0.08 0.08 76 1016.9